Location: Enborne
(51.3833°N, 1.3667°W)
Time: 01:09:03
(UTC+00:00)

NOSS 2-2 (C) - Pass Details

Date: 24 January 2021
Orbit: 463 x 1745 km, 63.3° (Epoch: 03 March)

Event Time Altitude Azimuth Distance (km) Brightness Sun altitude
Rises 18:31:28 0° 312° (NW) 2,828 7.5 -16.9°
Reaches altitude 10° 18:33:42 10° 325° (NW) 2,057 6.6 -17.2°
Maximum altitude 18:37:50 30° 27° (NNE) 1,366 5.0 -17.8°
Enters shadow 18:39:10 27° 53° (NE) 1,538 5.1 -18.0°
